Flag for Reunion (French) Weather past 2 weeks in Saint-Pierre, Reunion (French)

Now
79 °F

Pleasantly warm.


Feels Like: 77 °F
Forecast: 76 / 85 °F
Wind: 8 mph from East

Location: Saint Airport-Pierre

Current Time: Jan 25, 2015 at 10:40:00 PM

Latest Report: Jan 25, 2015 at 10:00 PM


Visibility: N/A

Pressure: 29.95 "Hg

Humidity: 1%

Dew point: -29 °F

Location of Saint-PierreLocation

Historic Weather in Saint-Pierre — Graph

°F

Saint-Pierre temperature yesterday

Maximum temperature yesterday: 86 °F (at 2:30 PM)
Minimum temperature yesterday: 73 °F (at 12:00 AM)
Average temperature yesterday: 79 °F

Past Weeks' High & Low Weather Summary

 TemperatureHumidityPressure
High93 °F (Jan 11, 11:30 AM)94% (Jan 14, 4:30 AM)29.95 "Hg (Jan 14, 4:30 AM)
Low73 °F (Jan 23, 4:00 AM)1% (Jan 24, 3:30 AM)29.56 "Hg (Jan 18, 1:30 PM)
Average81 °F69%29.75 "Hg
* Reported Jan 10 9:00 PM — Jan 25 9:30 PM, Saint-Pierre, Weather by CustomWeather, © 2014

Note: Actual official high and low records may vary slightly from our data, if they occured in-between our weather recording intervals... More about our weather records

Advertising

Saint-Pierre weather history for previous 24 hours

 ConditionsComfort  
Time TempWeatherWind HumidityBarometerVisibility
9:30 PM
Jan 25
81 °FPassing clouds.13 mph1%29.95 "HgN/A
9:00 PM81 °FPleasantly warm.24 mph1%29.95 "HgN/A
8:30 PM81 °FPleasantly warm.20 mph1%29.95 "HgN/A
8:00 PM81 °FPleasantly warm.23 mph1%29.92 "HgN/A
7:30 PM81 °FPleasantly warm.24 mph1%29.92 "HgN/A
7:00 PM82 °FPleasantly warm.25 mph1%29.92 "HgN/A
6:30 PM82 °FPleasantly warm.26 mph1%29.89 "HgN/A
6:00 PM82 °FPleasantly warm.28 mph1%29.89 "HgN/A
5:30 PM82 °FPassing clouds.30 mph1%29.89 "HgN/A
5:00 PM84 °FOvercast.28 mph1%29.89 "HgN/A
4:30 PM86 °FPartly sunny.28 mph1%29.86 "HgN/A
4:00 PM86 °FPartly sunny.26 mph1%29.86 "HgN/A
3:30 PM86 °FPartly sunny.28 mph1%29.86 "HgN/A
3:00 PM84 °FPassing clouds.24 mph1%29.86 "HgN/A
2:30 PM84 °FPassing clouds.28 mph1%29.86 "HgN/A
2:00 PM84 °FPassing clouds.30 mph1%29.86 "HgN/A
1:30 PM86 °FScattered clouds.25 mph1%29.86 "HgN/A
1:00 PM88 °FPleasantly warm.24 mph1%29.86 "HgN/A
12:30 PM86 °FPleasantly warm.26 mph1%29.86 "HgN/A
12:00 PM84 °FPleasantly warm.26 mph1%29.89 "HgN/A
11:30 AM86 °FPleasantly warm.26 mph1%29.89 "HgN/A
11:00 AM86 °FPleasantly warm.25 mph1%29.89 "HgN/A
10:30 AM86 °FPleasantly warm.18 mph1%29.89 "HgN/A
10:00 AM86 °FPleasantly warm.17 mph1%29.89 "HgN/A
9:30 AM86 °FPleasantly warm.17 mph1%29.89 "HgN/A
9:00 AM84 °FPleasantly warm.7 mph1%29.89 "HgN/A
8:30 AM86 °FPleasantly warm.7 mph1%29.92 "HgN/A
8:00 AM84 °FPleasantly warm.6 mph1%29.89 "HgN/A
7:30 AM81 °FPleasantly warm.5 mph1%29.89 "HgN/A
6:30 AM77 °FPleasantly warm.6 mph1%29.89 "HgN/A
6:00 AM75 °FMild.7 mph1%29.86 "HgN/A
5:30 AM77 °FPleasantly warm.2 mph1%29.86 "HgN/A
5:00 AM79 °FPleasantly warm.8 mph1%29.86 "HgN/A
4:30 AM77 °FPleasantly warm.6 mph1%29.83 "HgN/A
4:00 AM77 °FPleasantly warm.5 mph1%29.83 "HgN/A
3:30 AM77 °FPleasantly warm.3 mph1%29.83 "HgN/A
3:00 AM75 °FMild.3 mph1%29.83 "HgN/A
2:30 AM77 °FPleasantly warm.5 mph1%29.86 "HgN/A
2:00 AM77 °FPleasantly warm.3 mph1%29.86 "HgN/A
1:30 AM75 °FMild.5 mph1%29.86 "HgN/A
1:00 AM77 °FPleasantly warm.No wind1%29.86 "Hg6 mi
12:30 AM77 °FPleasantly warm.8 mph1%29.86 "HgN/A
12:00 AM77 °FPleasantly warm.5 mph1%29.86 "HgN/A
11:30 PM
Jan 24
79 °FPassing clouds.6 mph1%29.86 "HgN/A
11:00 PM79 °FPleasantly warm.2 mph1%29.86 "HgN/A
10:30 PM79 °FPleasantly warm.8 mph1%29.86 "HgN/A
10:00 PM81 °FPassing clouds.24 mph1%29.86 "HgN/A
Weather by CustomWeather, © 2014

See weather overviewHow to use our weather pages